Regional Weather Roundup
Issued by NWS

Home | Current Version | Previous Version | Graphics & Text | Print | Product List | Glossary On
Versions: 1 2 3 4 5 6 7 8 9 10 11 12 13 14 15 16 17 18 19 20 21 22 23 24 25 26 27 28 29 30 31 32 33 34 35 36 37 38 39 40 41 42 43 44 45 46 47 48 49 50
000
ASUS45 KBOU 281507
RWRCO

WEATHER ROUNDUP FOR COLORADO
NATIONAL WEATHER SERVICE DENVER/BOULDER CO
900 AM MDT THU MAY 28 2015

NOTE: "FAIR" INDICATES FEW OR NO CLOUDS BELOW 12000 FEET WITH NO
SIGNIFICANT WEATHER AND/OR OBSTRUCTIONS TO VISIBILITY.

COZ001>005-013-030-031-281600-
...NORTHWEST COLORADO...

CITY           SKY/WX    TMP DP  RH WIND       PRES   REMARKS
CRAIG          MOSUNNY   56  44  64 NW6       30.18R
HAYDEN         CLOUDY    50  39  66 CALM      30.19S
MEEKER         MOSUNNY   52  45  77 SE5       30.19S
MOUNT WERNER   NOT AVBL
STEAMBOAT SPGS CLOUDY    47  44  87 CALM      30.20S
WALDEN         CLOUDY    45  37  76 SW15      30.22R
$$

COZ006>008-011-281600-
...WEST CENTRAL VALLEYS...

CITY           SKY/WX    TMP DP  RH WIND       PRES   REMARKS
GRAND JUNCTION SUNNY     57  49  74 S3        30.14R
MONTROSE       MOSUNNY   57  44  62 SE7       30.18F
EAGLE          MOSUNNY   48  45  87 CALM      30.22F
RIFLE          CLOUDY    53  45  74 CALM      30.18R
DELTA          MOSUNNY   59  46  62 CALM      30.17S
NUCLA          MOSUNNY   55  43  62 CALM      30.21S
$$

COZ017>023-064>068-281600-
...SOUTHWEST COLORADO...

CITY           SKY/WX    TMP DP  RH WIND       PRES   REMARKS
DURANGO        MOSUNNY   57  40  52 CALM      30.19R
CORTEZ         SUNNY     60  41  49 E3        30.16R
PAGOSA SPRINGS MOSUNNY   57  32  37 CALM      30.24S
TELLURIDE      PTSUNNY   48  37  64 CALM      30.30S
WOLF CREEK PAS NOT AVBL
$$

COZ009-010-012-014-032>034-037-058>063-281600-
...CENTRAL COLORADO...

CITY           SKY/WX    TMP DP  RH WIND       PRES   REMARKS
ASPEN          PTSUNNY   49  37  63 VRB3      30.22R
BUENA VISTA    PTSUNNY   50  35  55 CALM      30.23F
COPPER MTN     PTSUNNY   37  28  70 S10G17    30.39S
BERTHOUD PASS  FAIR      30  23  74 W12G26    30.40F WCI  21
COTTONWOOD PAS PTSUNNY   50  36  57 CALM      30.31S
GUNNISON         N/A     46  36  66 CALM      30.28F
KREMMLING      CLOUDY    50  39  66 E6        30.24S
LEADVILLE      PTSUNNY   43  31  62 S7        30.28F
MONARCH PASS   MOSUNNY   36  28  75 SW22      30.50S
SALIDA         PTSUNNY   54  37  53 CALM      30.29S
SUNLIGHT       CLOUDY    41  37  87 CALM      30.37S
WILKERSON PASS MOSUNNY   41  30  65 SW5       30.39S
$$

COZ069>075-281600-
...SAN LUIS VALLEY/SANGRE DE CRISTO MOUNTAINS...

CITY           SKY/WX    TMP DP  RH WIND       PRES   REMARKS
ALAMOSA        PTSUNNY   58  36  43 VRB5      30.22S
LA VETA PASS   MOSUNNY  N/A N/A N/A MISG      30.33S
SAGUACHE       MOSUNNY   54  36  50 W3        30.24S
$$

COZ035-036-038>040-281600-
...NORTHERN COLORADO FRONT RANGE...

CITY           SKY/WX    TMP DP  RH WIND       PRES   REMARKS
DENVER INTL AP PTSUNNY   62  54  74 NW10      30.07F
DMNS CITY PARK   N/A     65  46  51 W2        30.07S
AURORA         PTSUNNY   61  49  65 VRB3      30.09S
FRONT RANGE AP PTSUNNY   63  54  72 W8        30.08F
ERIE MUNI ARPT MOSUNNY   61  54  78 CALM      30.07S
BOULDER MUN AP PTSUNNY   61  50  67 CALM      30.07S
CENTENNIAL     PTSUNNY   61  47  59 E3        30.09F
BROOMFIELD     NOT AVBL
FORT COLLINS   MOSUNNY   61  54  77 W3        30.06F
LONGMONT       MOSUNNY   66  51  57 CALM      30.07F
$$

COZ041-046-047-076>085-087-088-281600-
...PIKES PEAK/PALMER DIVIDE AND SOUTHERN FOOTHILLS...

CITY           SKY/WX    TMP DP  RH WIND       PRES   REMARKS
COLO. SPRINGS  PTSUNNY   66  38  35 SE7       30.11F
A. F. ACADEMY  PTSUNNY   63  37  38 E5        30.11F
ELLICOTT       MOSUNNY  N/A N/A N/A CALM      30.10S
FALCON         MOSUNNY   64  34  32 CALM      30.15F
FORT CARSON    MOSUNNY   65  42  41 VRB1      30.09S
LIMON          SUNNY     58  53  84 NW5       30.07F
MONUMENT HILL  MOSUNNY   63  37  39 SE8       30.15F
TRINIDAD       PTSUNNY   63  46  54 SW13      30.08F
$$

COZ042>045-048>051-090-091-281600-
...NORTHEAST COLORADO...

CITY           SKY/WX    TMP DP  RH WIND       PRES   REMARKS
GREELEY ARPT   MOSUNNY   63  55  77 W7        30.05S
AKRON          MOSUNNY   61  55  81 W10       30.03S
BURLINGTON     CLOUDY    64  57  78 S13       30.03R
WRAY           PTSUNNY   64  56  74 SW6       30.01S
STERLING       PTSUNNY   63  55  77 NW7       30.01S
HOLYOKE        PTSUNNY   63  55  77 SW7       30.01R
FORT MORGAN    PTSUNNY   58  55  89 NW6       30.04F
$$

COZ086-089-092>099-281600-
...SOUTHEAST COLORADO...

CITY           SKY/WX    TMP DP  RH WIND       PRES   REMARKS
PUEBLO         MOSUNNY   62  51  67 CALM      30.05F
LA JUNTA       MOSUNNY   64  54  69 W12       30.02F
LAMAR          MOSUNNY   70  57  63 SW13      29.98F
SPRINGFIELD      N/A     65  59  81 S22G28    30.04F
$$



USA.gov is the U.S. government's official web portal to all federal, state and local government web resources and services.